Location: Ravensburg
(47.7866°N, 9.6124°E)
Time: 19:13:26
(UTC+01:00)

ISS - Pass Details

Date: 18 November 2025
Orbit: 416 x 421 km, 51.6° (Epoch: 05 December)

Event Time Altitude Azimuth Distance (km) Brightness Sun altitude
Rises 17:21:12 0° 233° (SW) 2,361 1.9 -6.9°
Reaches altitude 10° 17:23:19 10° 230° (SW) 1,499 0.4 -7.3°
Maximum altitude 17:26:37 58° 151° (SSE) 494 -3.5 -7.8°
Enters shadow 17:29:45 11° 71° (ENE) 1,422 -1.8 -8.3°
